User: anonymous   Login
Location: Unspecified
(0.0000°N, 0.0000°E)
Time: 12:12:27
(UTC+00:00)
Language:

USA 229 - Orbit

View from above orbital plane
View from above orbital plane
View from above satellite
View from above satellite

Ground track
Ground track

The orbit data is extracted from the following two-line orbital elements,

1 37386U 11014A   16213.87851268 0.00000000  00000-0  00000-0 0    05
2 37386  63.4295 111.2875 0038000   5.3553 354.6447 13.40711302    00
Epoch (UTC): 31 July 2016 21:05:03
Eccentricity: 0.0038000
inclination: 63.4295°
perigee height: 1078 km
apogee height: 1135 km
right ascension of ascending node: 111.2875°
argument of perigee: 5.3553°
revolutions per day: 13.40711302
mean anomaly at epoch: 354.6447°
orbit number at epoch: 0

The dashed part of the orbit path shows where the satellite is in the earth's shadow,  

DLR